Weather History for KVPZ - February, 2014

Change the Weather History Date:

Saturday, February 1, 2014

  Actual Average Record
Temperature  
Mean Temperature 28 °F 24 °F  
Max Temperature 31 °F 32 °F 52 °F (2006)
Min Temperature 24 °F 17 °F 2 °F (2013)
Degree Days  
Heating Degree Days 37 41  
Month to date heating degree days 37 41  
Since 1 July heating degree days 4109 3726  
Cooling Degree Days 0 0  
Month to date cooling degree days 0 0  
Year to date cooling degree days 0 0  
Moisture  
Dew Point 27 °F    
Average Humidity 96    
Maximum Humidity 100    
Minimum Humidity 85    
Precipitation  
Precipitation 0.36 in 0.04 in 0.36 in (2014)
Month to date precipitation 0.36 0.04  
Year to date precipitation 1.31 1.79  
Sea Level Pressure  
Sea Level Pressure 29.93 in    
Wind  
Wind Speed 7 mph (NNE)    
Max Wind Speed 14 mph    
Max Gust Speed 17 mph    
Visibility 3 miles    
Events Fog , Rain , Snow    
T = Trace of Precipitation, MM = Missing Value Source: NWS Daily Summary

Daily Weather History Graph

Daily Weather History Graph

Search for Another Location

Airport or City:

Trip Planner

Search our weather history database for the weather conditions in past years. The results will help you decide how hot, cold, wet, or windy it might be!

Date:

Astronomy

Feb. 01, 2014 Rise Set
Actual Time 6:59 AM CST 5:04 PM CST
Civil Twilight 6:30 AM CST 5:33 PM CST
Nautical Twilight 5:57 AM CST 6:06 PM CST
Astronomical Twilight 5:24 AM CST 6:39 PM CST
Moon 7:46 AM CST (2/1) 7:41 PM CST (2/1)
Length of Visible Light 11h 03m
Length of Day
10h 04m
Waxing Crescent, 5% of the Moon is Illuminated
Feb 1
Waxing Crescent
Feb 6
First Quarter
Feb 14
Full
Feb 22
Last Quarter
Mar 1
New

Hourly Weather History & Observations

Time (CST) Temp. Windchill Dew Point Humidity Pressure Visibility Wind Dir Wind Speed Gust Speed Precip Events Conditions
12:00 AM 24.1 °F 18.2 °F 23.0 °F 96% 30.07 in 2.0 mi ENE 4.6 mph - 0.00 in Snow Light Snow
12:22 AM 24.1 °F 16.0 °F 23.0 °F 96% 30.06 in 3.0 mi ENE 6.9 mph - 0.00 in Snow Light Snow
12:53 AM 24.1 °F 17.0 °F 23.0 °F 96% 30.09 in 4.0 mi ENE 5.8 mph - 0.00 in   Overcast
1:14 AM 24.1 °F 16.0 °F 23.0 °F 96% 30.04 in 4.0 mi ENE 6.9 mph - N/A   Overcast
1:53 AM 25.0 °F 17.1 °F 24.1 °F 96% 30.06 in 4.0 mi East 6.9 mph - N/A   Overcast
2:53 AM 25.0 °F 17.1 °F 24.1 °F 96% 30.05 in 4.0 mi East 6.9 mph - N/A   Overcast
3:32 AM 25.0 °F 17.1 °F 24.1 °F 96% 29.99 in 3.0 mi ENE 6.9 mph - N/A   Overcast
3:53 AM 25.0 °F 16.3 °F 25.0 °F 100% 30.02 in 3.0 mi East 8.1 mph - N/A   Overcast
4:38 AM 26.1 °F 16.8 °F 25.0 °F 96% 29.95 in 2.5 mi East 9.2 mph - 0.00 in Snow Light Snow
4:48 AM 26.6 °F 19.1 °F 24.8 °F 93% 29.95 in 1.8 mi East 6.9 mph - 0.00 in Snow Light Snow
4:49 AM 26.1 °F 18.4 °F 25.0 °F 96% 29.98 in 1.8 mi East 6.9 mph - 0.00 in Snow Light Snow
5:34 AM 26.1 °F 18.4 °F 26.1 °F 100% 29.95 in 0.8 mi ENE 6.9 mph - 0.02 in Snow Light Snow
5:53 AM 26.1 °F 19.4 °F 26.1 °F 100% 29.98 in 0.8 mi NE 5.8 mph - 0.03 in Snow Light Snow
6:05 AM 26.1 °F 19.4 °F 26.1 °F 100% 29.95 in 0.8 mi NE 5.8 mph - 0.01 in Snow Light Snow
6:53 AM 26.1 °F 17.6 °F 26.1 °F 100% 29.95 in 0.8 mi ENE 8.1 mph - 0.07 in Snow Light Snow
7:25 AM 27.0 °F 21.6 °F 26.1 °F 96% 29.93 in 0.2 mi NE 4.6 mph - 0.03 in Fog , Snow Snow
7:53 AM 27.0 °F 20.5 °F 27.0 °F 100% 29.96 in 0.2 mi NE 5.8 mph - 0.06 in Fog , Snow Snow
8:01 AM 27.0 °F 19.5 °F 27.0 °F 100% 29.92 in 0.5 mi NE 6.9 mph - 0.01 in Fog , Snow Snow
8:27 AM 27.0 °F 19.5 °F 27.0 °F 100% 29.92 in 0.5 mi NE 6.9 mph - 0.02 in Fog , Snow Snow
8:39 AM 27.0 °F 18.7 °F 27.0 °F 100% 29.90 in 0.5 mi NE 8.1 mph - 0.04 in Fog , Snow Snow
8:50 AM 26.6 °F 18.2 °F 26.6 °F 100% 29.89 in 0.5 mi NE 8.1 mph - 0.05 in Fog , Snow Light Snow
8:53 AM 27.0 °F 18.7 °F 27.0 °F 100% 29.93 in 0.8 mi NE 8.1 mph - 0.06 in Snow Light Snow
9:15 AM 27.0 °F 18.7 °F 27.0 °F 100% 29.89 in 0.5 mi ENE 8.1 mph - 0.02 in Fog , Snow Snow
9:37 AM 28.0 °F 17.5 °F 27.0 °F 96% 29.84 in 0.2 mi ENE 12.7 mph - 0.04 in Fog , Snow Light Snow
9:41 AM 28.0 °F 18.6 °F 28.0 °F 100% 29.84 in 0.5 mi ENE 10.4 mph - 0.04 in Fog , Snow Light Snow
9:49 AM 28.4 °F 18.5 °F 28.4 °F 100% 29.83 in 1.0 mi ENE 11.5 mph - 0.04 in Snow Light Snow
9:53 AM 28.0 °F 19.3 °F 28.0 °F 100% 29.88 in 1.0 mi ENE 9.2 mph - 0.04 in   Overcast
10:53 AM 28.9 °F 21.9 °F 28.0 °F 96% 29.88 in 1.8 mi ENE 6.9 mph - 0.00 in   Overcast
11:53 AM 30.0 °F 25.2 °F 28.9 °F 96% 29.84 in 1.5 mi NNE 4.6 mph - 0.01 in   Overcast
12:53 PM 30.0 °F 24.1 °F 28.0 °F 92% 29.84 in 1.8 mi North 5.8 mph - 0.03 in   Overcast
1:05 PM 30.0 °F 23.2 °F 28.0 °F 92% 29.81 in 2.0 mi NNW 6.9 mph - 0.00 in   Overcast
1:41 PM 30.0 °F 25.2 °F 28.9 °F 96% 29.82 in 2.0 mi North 4.6 mph - 0.01 in Rain Light Freezing Rain
1:53 PM 30.0 °F 24.1 °F 28.9 °F 96% 29.85 in 2.0 mi North 5.8 mph - 0.01 in Rain Light Freezing Rain
2:01 PM 30.9 °F 26.2 °F 28.9 °F 92% 29.81 in 2.0 mi NNW 4.6 mph - 0.00 in   Overcast
2:08 PM 30.0 °F 23.2 °F 28.9 °F 96% 29.81 in 1.8 mi NNW 6.9 mph - 0.01 in Snow Light Snow
2:19 PM 30.0 °F 22.4 °F 28.9 °F 96% 29.82 in 1.8 mi NNW 8.1 mph - 0.01 in Snow Light Snow
2:26 PM 30.0 °F 21.7 °F 28.9 °F 96% 29.82 in 2.0 mi NNW 9.2 mph - 0.01 in   Overcast
2:42 PM 30.0 °F 23.2 °F 28.9 °F 96% 29.81 in 2.0 mi North 6.9 mph - 0.01 in Snow Light Snow
2:53 PM 30.0 °F 25.2 °F 28.0 °F 92% 29.85 in 2.0 mi NNW 4.6 mph - 0.01 in   Overcast
3:08 PM 30.0 °F 22.4 °F 28.0 °F 92% 29.83 in 0.8 mi North 8.1 mph - 0.01 in Snow Light Snow
3:23 PM 28.9 °F 21.9 °F 28.0 °F 96% 29.84 in 1.0 mi NNW 6.9 mph - 0.01 in Snow Light Snow
3:41 PM 28.9 °F 22.8 °F 28.0 °F 96% 29.86 in 2.0 mi NNW 5.8 mph - 0.01 in Snow Light Snow
3:51 PM 28.4 °F 23.3 °F 28.4 °F 100% 29.87 in 1.2 mi NNW 4.6 mph - 0.02 in Snow Light Snow
3:53 PM 28.9 °F 23.9 °F 28.0 °F 96% 29.90 in 1.0 mi NNW 4.6 mph - 0.02 in Snow Light Snow
4:01 PM 28.9 °F 21.1 °F 28.0 °F 96% 29.87 in 0.8 mi NNW 8.1 mph - 0.00 in Snow Light Snow
4:24 PM 28.9 °F 21.9 °F 28.0 °F 96% 29.88 in 1.0 mi North 6.9 mph - 0.01 in Snow Light Snow
4:53 PM 28.9 °F 21.1 °F 28.0 °F 96% 29.93 in 1.2 mi NNW 8.1 mph - 0.01 in Snow Light Snow
5:09 PM 28.9 °F 25.2 °F 28.0 °F 96% 29.90 in 0.8 mi North 3.5 mph - 0.01 in Snow Light Snow
5:17 PM 28.9 °F 21.9 °F 28.0 °F 96% 29.90 in 1.5 mi NNW 6.9 mph - 0.01 in Snow Light Snow
5:27 PM 28.9 °F 21.9 °F 28.0 °F 96% 29.90 in 2.0 mi North 6.9 mph - 0.01 in Snow Light Snow
5:43 PM 28.9 °F 21.9 °F 28.0 °F 96% 29.90 in 2.5 mi North 6.9 mph - 0.01 in Snow Light Snow
5:53 PM 28.9 °F 20.4 °F 28.0 °F 96% 29.94 in 2.0 mi North 9.2 mph - 0.01 in Snow Light Snow
6:10 PM 28.9 °F 20.4 °F 28.0 °F 96% 29.92 in 4.0 mi North 9.2 mph - 0.00 in Snow Light Snow
6:53 PM 28.9 °F 21.1 °F 28.0 °F 96% 29.98 in 3.0 mi NNW 8.1 mph - 0.00 in Snow Light Snow
7:53 PM 28.9 °F 20.4 °F 27.0 °F 92% 30.01 in 10.0 mi North 9.2 mph - 0.00 in   Overcast
8:49 PM 28.4 °F 20.4 °F 26.6 °F 93% 30.00 in 10.0 mi North 8.1 mph - N/A   Overcast
8:53 PM 28.9 °F 21.1 °F 26.1 °F 89% 30.03 in 10.0 mi North 8.1 mph - N/A   Overcast
9:21 PM 28.0 °F 20.8 °F 26.1 °F 92% 30.01 in 10.0 mi North 6.9 mph - N/A   Overcast
9:44 PM 28.0 °F 20.8 °F 26.1 °F 92% 30.02 in 10.0 mi North 6.9 mph - N/A   Overcast
9:53 PM 28.0 °F 20.8 °F 26.1 °F 92% 30.05 in 10.0 mi North 6.9 mph - N/A   Overcast
10:31 PM 28.0 °F 19.3 °F 25.0 °F 88% 30.01 in 10.0 mi North 9.2 mph - N/A   Overcast
10:53 PM 28.0 °F 19.3 °F 24.1 °F 85% 30.06 in 10.0 mi NNW 9.2 mph - N/A   Overcast
11:53 PM 27.0 °F 18.7 °F 23.0 °F 85% 30.08 in 10.0 mi NW 8.1 mph - N/A   Overcast